User: anonymous   Login
Location: Unspecified
(0.0000°N, 0.0000°E)
Time: 03:50:42
(UTC+02:00)
Language:

Cosmos 2219 Rocket - Orbit

View from above orbital plane
View from above orbital plane
View from above satellite
View from above satellite

Ground track
Ground track

The orbit data is extracted from the following two-line orbital elements,

1 22220U 92076B   16244.49830738 -.00000162  00000-0 -57145-4 0  9998
2 22220  71.0012 309.0239 0013431 344.1844 108.4528 14.16403314229757
Epoch (UTC): 31 August 2016 11:57:33
Eccentricity: 0.0013431
inclination: 71.0012°
perigee height: 828 km
apogee height: 847 km
right ascension of ascending node: 309.0239°
argument of perigee: 344.1844°
revolutions per day: 14.16403314
mean anomaly at epoch: 108.4528°
orbit number at epoch: 22975

The dashed part of the orbit path shows where the satellite is in the earth's shadow,  

DLR